Weather History for Colima, Mexico

Change the Weather History Date:

Monday, April 8, 2013

  Actual Average Record
Temperature  
Mean Temperature 82 °F -  
Max Temperature 95 °F 86 °F 95 °F (2013)
Min Temperature 69 °F 68 °F 44 °F (1997)
Cooling Degree Days 17    
Growing Degree Days 32 (Base 50)    
Moisture  
Dew Point 52 °F    
Average Humidity 35    
Maximum Humidity 57    
Minimum Humidity 17    
Precipitation  
Precipitation 0.00 in - - ()
Sea Level Pressure  
Sea Level Pressure 29.93 in    
Wind  
Wind Speed 6 mph ()    
Max Wind Speed 17 mph    
Max Gust Speed -    
Visibility 7.5 miles    
Events      
Averages and records for this station are not official NWS values.
T = Trace of Precipitation, MM = Missing Value Source: Averaged Metar Reports

Daily Weather History Graph

Daily Weather History Graph

Search for Another Location

Airport:

Trip Planner

Search our weather history database for the weather conditions in past years. The results will help you decide how hot, cold, wet, or windy it might be!

Date:

Astronomy

Apr. 08, 2013 Rise Set
Actual Time 7:42 AM CDT 8:10 PM CDT
Civil Twilight 7:19 AM CDT 8:32 PM CDT
Nautical Twilight 6:54 AM CDT 8:58 PM CDT
Astronomical Twilight 6:27 AM CDT 9:24 PM CDT
Moon 6:22 AM CDT (4/8) 6:53 PM CDT (4/8)
Length of Visible Light 13h 12m
Length of Day
12h 28m
Waning Crescent, 3% of the Moon is Illuminated
Apr 8
Waning Crescent
Apr 10
New
Apr 18
First Quarter
Apr 25
Full
May 2
Last Quarter

Hourly Weather History & Observations

Time (CDT) Temp. Heat Index Dew Point Humidity Pressure Visibility Wind Dir Wind Speed Gust Speed Precip Events Conditions
5:57 AM 73.4 °F - 51.8 °F 47% 29.95 in 8.0 mi North 9.2 mph - N/A   Clear
6:54 AM 73.4 °F - 51.8 °F 47% 29.95 in 8.0 mi North 11.5 mph - N/A   Clear
7:51 AM 69.8 °F - 51.8 °F 53% 29.96 in 8.0 mi Calm Calm - N/A   Clear
8:44 AM 73.4 °F - 51.8 °F 47% 29.98 in 8.0 mi Calm Calm - N/A   Clear
9:40 AM 75.2 °F - 59.0 °F 57% 30.00 in 8.0 mi Calm Calm - N/A   Clear
9:50 AM 77 °F - 53 °F 32% 29.95 in 5 mi NE 2.2 mph - -   Haze
10:50 AM 75.2 °F - 51.8 °F 44% 30.01 in 8.0 mi Calm Calm - N/A   Clear
11:54 AM 84.2 °F - 50.0 °F 30% 30.00 in 8.0 mi Calm Calm - N/A   Clear
12:50 PM 91 °F - 52 °F 17% 29.89 in 5 mi SE 4.5 mph - -   Haze
12:51 PM 84.2 °F - 50.0 °F 30% 29.99 in 8.0 mi Calm Calm - N/A   Scattered Clouds
1:51 PM 86.0 °F - 50.0 °F 29% 29.96 in 8.0 mi SSW 11.5 mph - N/A   Clear
2:42 PM 87.8 °F - 50.0 °F 27% 29.92 in 8.0 mi WSW 17.3 mph - N/A   Scattered Clouds
3:46 PM 86.0 °F 84.5 °F 55.4 °F 35% 29.89 in 8.0 mi SW 17.3 mph - N/A   Mostly Cloudy
3:52 PM 93 °F - 63 °F 27% 29.80 in 6 mi SE 8.9 mph - -   Haze
4:46 PM 84.2 °F 82.8 °F 53.6 °F 35% 29.88 in 8.0 mi WSW 13.8 mph - N/A   Mostly Cloudy
5:51 PM 84.2 °F - 50.0 °F 30% 29.88 in 8.0 mi SW 17.3 mph - N/A   Mostly Cloudy
6:50 PM 82.4 °F - 48.2 °F 30% 29.89 in 8.0 mi WSW 17.3 mph - N/A   Mostly Cloudy
6:53 PM 87 °F - 52 °F 20% 29.78 in 6 mi SE 6.7 mph - -   Haze
7:42 PM 80.6 °F - 44.6 °F 28% 29.91 in 8.0 mi WSW 11.5 mph - N/A   Scattered Clouds
8:45 PM 77.0 °F - 42.8 °F 29% 29.93 in 8.0 mi West 9.2 mph - N/A   Scattered Clouds
9:50 PM 75.2 °F - 50.0 °F 41% 29.96 in 8.0 mi Calm Calm - N/A   Scattered Clouds